Location: Degersen
(52.2871°N, 9.5716°E)
Time: 00:53:16
(UTC+00:00)

Daily predictions for brighter satellites

Satellite Brightness Start Highest point End
(mag) Time Altitude Azimuth Time Altitude Azimuth Time Altitude Azimuth
ACS3 Solar Sail 4.4 02:17:51 10° N 02:17:55 10° N 02:17:55 10° N
Cosmos 2344 4.4 03:09:45 37° N 03:09:45 37° N 03:16:35 10° ENE
CZ-4C R/B 3.8 03:28:29 31° N 03:28:29 31° N 03:34:39 10° ENE
ATLAS 2AS CENTAUR R/B 2.7 03:37:35 72° ENE 03:37:35 72° ENE 03:44:01 10° SE
Cosmos 2082 Rocket 2.7 03:44:13 56° ENE 03:44:13 56° ENE 03:49:26 10° SE
Cosmos 2278 Rocket 3.2 03:48:42 35° SSE 03:50:18 43° ESE 03:55:39 10° NE
Cosmos 1943 Rocket 2.9 03:49:45 45° SE 03:50:27 47° ESE 03:55:43 10° NE
COSMOS 2406 4.2 03:53:05 34° N 03:54:43 42° NE 04:00:09 10° ESE
Cosmos 1932 4.4 03:58:46 82° S 03:58:59 85° SE 04:05:35 10° NE
Cosmos 2181 Rocket 3.9 03:57:26 10° N 04:03:52 85° W 04:10:19 10° S
Lacrosse 5 rocket 3.3 04:06:34 23° ENE 04:06:34 23° ENE 04:08:20 10° ENE
ACS3 Solar Sail 4.0 04:01:44 10° N 04:01:46 10° N 04:01:46 10° N
Cosmos 2184 Rocket 4.5 04:03:27 10° S 04:09:28 59° E 04:15:31 10° NNE
Cosmos 1805 Rocket 4.5 04:10:23 45° NE 04:10:23 45° NE 04:13:49 10° NNE
GEOS 3 Rocket 4.3 04:07:26 10° ESE 04:12:29 49° NE 04:13:39 42° N
Cosmos 1500 Rocket 4.2 04:17:14 52° NE 04:17:14 52° NE 04:20:49 10° NNE
Cosmos 2074 Rocket 4.0 04:23:02 10° S 04:29:19 81° E 04:35:38 10° NNE
USA 307 4.5 04:33:15 24° SSE 04:33:15 24° SSE 04:35:08 10° SE
COSMO-SKYMED 1 2.5 04:33:11 10° SSE 04:37:17 75° ENE 04:37:44 66° NNE
SJ-11-01 4.2 04:34:06 10° N 04:38:12 64° NNW 04:38:12 64° NNW
Nadezhda 3 Rocket 3.9 04:36:24 10° NNW 04:42:40 82° W 04:48:59 10° S
FengYun 1-2 T 4.1 04:40:18 10° NNE 04:45:51 69° WNW 04:49:45 20° SSW
Cosmos 1844 Rocket 4.5 04:46:45 16° NNW 04:46:45 16° NNW 04:49:49 10° NNE
Lacrosse 4 Rocket 2.1 04:44:43 28° S 04:46:27 49° ESE 04:50:14 10° NE
CZ-4 R/B 4.0 04:44:17 10° NNE 04:49:06 72° ESE 04:53:59 10° S
Cosmos 1758 3.2 04:49:39 67° NNE 04:49:39 67° NNE 04:52:55 10° NNE
Cosmos 1763 Rocket 3.3 04:48:56 38° NNW 04:50:57 85° WSW 04:56:01 10° SSE
Cosmos 1295 Rocket 4.4 04:46:34 10° SSW 04:52:51 67° WNW 04:59:07 10° N
Cosmos 1140 Rocket 3.3 04:49:50 17° SSW 04:53:47 89° WNW 04:58:58 10° NNE
Cosmos 540 Rocket 3.3 04:52:29 30° NNW 04:55:03 90° W 05:00:09 10° SSE
Cosmos 1862 Rocket 3.5 04:53:51 17° N 04:57:10 80° E 05:01:28 10° SSE
Cosmos 2227 Rocket 4.4 04:57:00 10° NNW 04:59:02 12° N 05:01:04 10° NNE
Cosmos 1023 Rocket 4.3 04:56:47 22° SSW 05:00:09 76° WNW 05:05:19 10° NNE
Cosmos 1328 4.3 05:00:26 16° N 05:03:10 53° ENE 05:06:42 10° SSE
Okean 1-7 2.9 05:00:38 15° N 05:04:02 80° E 05:08:12 10° SSE
Cosmos 1269 Rocket 3.9 05:02:24 15° SW 05:06:50 71° WNW 05:12:09 10° NNE
Cosmos 1461 4.0 05:04:37 10° SSW 05:08:15 39° ESE 05:11:55 10° NE
CZ-2C R/B 4.2 05:04:39 10° N 05:05:42 15° NNW 05:05:42 15° NNW
USA 32 3.9 05:03:34 10° S 05:08:49 85° W 05:14:06 10° N
Meteor 2-10 Rocket 3.6 05:05:29 10° SSW 05:10:33 53° WNW 05:15:53 10° N
Cosmos 1707 Rocket 3.4 05:08:43 15° NNW 05:12:19 78° W 05:16:39 10° S
Cosmos 2263 Rocket 4.4 05:11:07 10° NNW 05:13:04 12° N 05:15:01 10° NNE
Cosmos 2154 Rocket 4.0 05:07:39 10° SSW 05:13:52 61° WNW 05:20:05 10° N
CZ-4C R/B 3.3 05:13:25 20° NW 05:17:57 53° NNE 05:25:50 10° ESE
Cosmos 1633 Rocket 3.3 05:14:43 10° S 05:19:00 68° E 05:23:19 10° NNE
Cosmos 1656 Rocket 4.2 05:17:43 10° SSW 05:23:18 63° ESE 05:28:53 10° NE
Cosmos 1743 Rocket 3.8 05:20:21 10° SSW 05:24:35 45° WNW 05:28:50 10° N
Cosmos 2344 4.3 05:19:45 18° NW 05:25:25 51° NNE 05:34:27 10° ESE
Cosmos 2082 Rocket 2.9 05:26:05 27° WNW 05:27:38 31° WSW 05:32:34 10° SSW
ATLAS 2AS CENTAUR R/B 3.3 05:25:02 25° WNW 05:27:43 34° WSW 05:33:40 10° S
SJ 16-02 2.4 05:24:08 10° S 05:28:12 46° ESE 05:32:18 10° NNE
Cosmos 1666 Rocket 3.4 05:28:47 10° SSW 05:33:09 75° WNW 05:37:35 10° N
Cosmos 1484 Rocket 2.4 05:30:30 10° NNE 05:33:55 88° ESE 05:37:22 10° SSW
Cosmos 1943 Rocket 2.6 05:31:18 22° WSW 05:34:18 39° NW 05:39:29 10° NNE
Cosmos 2278 Rocket 2.5 05:30:36 18° WSW 05:34:25 43° NW 05:39:50 10° NNE
Meteor 1-24 Rocket 3.8 05:29:00 10° NNW 05:35:04 82° W 05:41:04 10° S
COSMOS 2406 3.5 05:35:07 18° NW 05:39:05 46° WSW 05:44:33 10° S
CENTAUR R/B 2.8 05:34:21 10° SSW 05:39:59 72° SE 05:47:11 10° NE
CBERS-1 4.2 05:35:21 10° NNE 05:40:27 75° ESE 05:45:33 10° S
Cosmos 921 Rocket 4.1 05:40:53 23° NW 05:40:53 23° NW 05:44:12 10° N
Cosmos 2341 Rocket 4.1 05:34:49 10° S 05:41:13 85° E 05:47:38 10° N
Lacrosse 5 rocket 1.1 05:40:04 27° WNW 05:42:02 78° NNE 05:45:48 10° ESE
SL-12 R/B(2) 4.4 05:33:45 10° SW 05:42:02 78° NW 05:52:22 10° NE
SeaSat 1 4.2 05:37:47 10° NE 05:42:18 36° ESE 05:46:47 10° S
SOZ 4.5 05:41:26 31° W 05:42:32 71° S 05:47:19 10° ESE
Meteor 2-5 Rocket 3.8 05:38:51 10° NNW 05:44:44 77° W 05:50:39 10° S
IGS 5A 3.3 05:40:54 10° N 05:44:51 64° WNW 05:48:47 10° SSW
Cosmos 407 Rocket 3.4 05:40:10 10° SW 05:45:18 68° WNW 05:50:32 10° NNE
Helios 1A Rocket 3.0 05:42:27 10° SSW 05:45:32 34° W 05:46:55 24° NW
Cosmos 1953 2.1 05:43:03 10° S 05:46:42 83° E 05:50:25 10° NNE
BREEZE-M DEB (TANK) 3.9 05:46:16 20° SW 05:46:57 23° SSW 05:49:00 10° SE
Cosmos 2297 Rocket 4.1 05:44:35 10° NNW 05:48:50 21° NNE 05:53:04 10° E
GEOS 3 Rocket 3.9 05:45:22 10° SSE 05:50:28 52° SW 05:54:42 15° NW
Timation 2 Rocket 4.4 05:46:08 10° WSW 05:52:16 43° NW 05:58:11 10° NNE
Cosmos 2228 Rocket 3.4 05:48:17 10° NNW 05:52:25 41° W 05:56:31 10° SSW
IRS-1D 4.2 05:48:22 10° N 05:53:09 35° WNW 05:57:54 10° SW
SL-8 Rocket 4.0 05:48:57 10° SSW 05:55:14 78° W 06:01:33 10° N
Cosmos 1809 Rocket 4.5 05:52:26 10° NNW 05:58:40 87° W 06:04:50 10° S
Gbstr 26 Del rocket 4.1 05:52:28 13° W 05:59:05 86° S 06:05:15 10° E
Cosmos 468 Rocket 4.3 05:54:34 11° NW 05:59:21 46° WSW 06:04:15 10° S
Cosmos 1833 4.3 05:57:07 10° NNW 06:02:57 84° ENE 06:08:44 10° SSE
NOSS 2-2 (C) 2.7 06:02:17 10° SW 06:05:29 81° SE 06:08:29 10° NE
Cosmos 864 Rocket 4.4 05:59:22 10° SSW 06:05:30 73° WNW 06:11:41 10° N
SL-23 DEB 3.4 06:06:15 15° W 06:08:48 79° S 06:12:25 10° E
Cosmos 1703 Rocket 3.5 06:05:55 10° NNW 06:10:10 60° W 06:14:26 10° S
Cosmos 2251 Rocket 3.5 06:05:23 10° SSW 06:10:44 77° WNW 06:16:05 10° NNE
Cosmos 1607 4.2 06:04:44 10° NW 06:11:00 73° NE 06:17:19 10° SE
COSMO-SKYMED 1 4.1 06:10:54 10° WSW 06:13:06 14° W 06:14:03 13° WNW
Cosmos 1867 3.7 06:08:21 10° NW 06:13:51 79° NE 06:19:18 10° SE
Cosmos 1340 Rocket 3.5 06:14:52 10° S 06:18:29 53° E 06:22:09 10° NNE
Thor Agena Rocket 3.5 06:13:32 10° NNE 06:18:41 85° WNW 06:23:51 10° SSW
Cosmos 724 4.4 06:14:19 10° NW 06:20:23 81° NE 06:26:15 10° SE
Cosmos 1821 Rocket 4.0 06:14:45 10° SSW 06:21:08 83° W 06:27:29 10° N
Cosmos 371 Rocket 3.2 06:17:32 10° SSW 06:22:20 69° WNW 06:27:09 10° NNE
Cosmos 1954 Rocket 3.9 06:17:21 10° SSW 06:22:30 82° WNW 06:27:42 10° NNE
SPOT 1/Viking Rocket 4.2 06:18:05 10° NNE 06:23:10 60° E 06:28:14 10° S
Lacrosse 4 Rocket 2.2 06:21:04 10° W 06:24:28 27° NW 06:27:51 10° NNE
Landsat 7 3.8 06:22:31 10° N 06:27:08 61° WNW 06:31:43 10° SSW
Cosmos 1470 Rocket 3.9 06:23:35 10° SW 06:27:37 40° WNW 06:31:42 10° N
Tiangong 0.8 06:27:41 10° SSW 06:29:03 12° S 06:30:24 10° SSE
Cosmos 2369 Rocket 2.2 06:28:59 10° SSW 06:34:42 81° WNW 06:40:28 10° NNE
NOSS 2-2 (D) 2.8 06:31:50 10° SW 06:35:06 78° SE 06:38:07 10° NE
SMAP 3.3 06:31:03 10° N 06:35:32 49° WNW 06:40:01 10° SW
Cosmos 1933 Rocket 3.5 06:31:08 10° SSW 06:35:33 69° WNW 06:39:59 10° N
Cosmos 841 Rocket 4.0 06:35:18 10° NW 06:40:08 41° WSW 06:44:55 10° S
COBE Rocket 4.0 06:35:09 10° S 06:40:09 73° WSW 06:45:18 10° NNW
YAOGAN 1 3.3 06:36:50 10° NNE 06:41:04 58° E 06:45:15 10° S
Cosmos 304 Rocket 4.0 06:37:20 10° SW 06:41:56 46° WNW 06:46:33 10° NNE
SL-08 R/B 3.4 06:39:06 10° S 06:43:59 72° WSW 06:48:55 10° NNW
Cosmos 1190 Rocket 4.2 06:39:19 10° SW 06:44:20 50° WNW 06:49:24 10° NNE
Cosmos 1461 3.3 06:41:19 10° WSW 06:44:57 36° NW 06:48:35 10° NNE
Cosmos 2227 Rocket 4.0 06:40:53 10° NNW 06:45:21 23° NE 06:49:48 10° E
